Погода в Богословке

Россия / Тамбовская область     52°31′43″N   41°06′02″E
темп.,
°C
ветер,
м/с
пор.,
м/с
влажн.,
%
обл.,
%
осадки,
мм/ч
давл.,
гПа
погр.,
м
15 мая, сб
сб1500:00+17юв411896 0.0 1012179
03:00+15ю3692100 0.0 1012106
06:00+16ююв379285 0.0 1012179
09:00+21ю5781100 0.6 1012449
12:00+21ююз2368100 0.9 1013598
15:00+24ююз465665 1.1 10121370
18:00+22юз36705 0.4 1013357
21:00+16зюз35770 0.4 101460
16 мая, вс
вс1600:00+15з11845 0.0 101411
03:00+15юв128234 0.0 101511
06:00+16вюв118011 0.0 101543
09:00+21вюв236221 0.0 1015500
12:00+24вюв225122 0.0 10151273
15:00+25в225523 0.2 10141388
18:00+23ююв3570100 0.8 1013200
21:00+18юв3374100 0.8 101429
17 мая, пн
пн1700:00+16в337585 0.0 101439
03:00+15в487999 0.0 1013113
06:00+16вюв36817 0.0 1013118
09:00+22юв59585 0.0 1013375
12:00+26юв610458 0.0 1013717
15:00+26юв711538 0.0 10121037
18:00+24юв613633 0.0 1011543
21:00+19вюв617715 0.0 1011325
18 мая, вт
вт1800:00+18юв718575 0.0 1010395
03:00+16юв614585 0.0 1010255
06:00+15юв513712 0.0 1010255
09:00+20ю610595 0.0 1010517
12:00+24ююв5754100 0.0 1010994
15:00+25ююв5549100 0.0 10091578
18:00+20зсз4678100 0.2 1009232
21:00+17юз3684100 1.5 1010127
19 мая, ср
ср1900:00+16ююв2287100 0.2 100930
03:00+16вюв41090100 0.5 1009258
06:00+15ююв41088100 0.0 1007303
09:00+18ю71078100 0.1 1007880
12:00+18ююз91276100 1.6 10081220
15:00+19юз796676 2.1 10091438
18:00+17зюз59770 1.9 10101010
21:00+13юз479159 1.9 1012135